sat.trackr.live / text

‹ back to catalog

STARLINK-30387

NORAD 57788 · 2023-134T

PAYLOAD ACTIVE UNKNOWN

§ Identity

Operator
Country
US
Launch date
2023-09-04
Launch site
AFETR
Launch vehicle
Mass (kg)
RCS (m²)

Purposes: comms

External: N2YO · Heavens-Above · Gunter

§ Orbital elements

Epoch: 2026-05-25T05:08:48.143904Z

Period
94.27 min
Inclination
43.0025°
Eccentricity
0.0001498
Mean motion
15.27580084 rev/d
Perigee alt
482.0 km
Apogee alt
484.1 km
Semi-major
6,861.2 km
B*
2.3831e-5
RAAN
110.9152°
Arg perigee
283.9662°
Mean anomaly
76.1023°
Rev number
15,134

§ Raw data

STARLINK-303871 57788U 23134T   26145.21444611  .00000394  00000+0  23831-4 0  99952 57788  43.0025 110.9152 0001498 283.9662  76.1023 15.27580084151341

JSON: /api/v1/satellites/57788 · /tle

For live sub-satellite position, see the globe view (requires WebGL).

§ Visibility from observer

Set your observer location to see the next 7 days of passes ≥ 10°. The values pass through the URL so the page stays shareable.

No JS? Fill the form by hand. The geolocation button needs JavaScript.